DAL3162 KPHX-KLAS

Flight info

Callsign DAL3162
Flight time 0h 41m
Altitude 24000
Route ZEPER2 RRSTA ELLDA RKSTR4
Aircraft A320/M-SDE3FGHIRWY/LB1

Departure

Time 2026-05-06 21:27
Airport Phoenix Sky Harbor International Airport (KPHX)

Arrival

Time 2026-05-06 22:08
Airport Harry Reid International Airport (KLAS)
Time Latitude Longitude Altitude Speed Heading
2026-05-06 21:27 33.44667 -112.18757 7739 ft 255 kts 324°
2026-05-06 21:27 33.46264 -112.19633 8602 ft 255 kts 352°
2026-05-06 21:28 33.48031 -112.19694 9518 ft 254 kts
2026-05-06 21:28 33.49795 -112.19660 10428 ft 255 kts
2026-05-06 21:28 33.51579 -112.19624 11218 ft 258 kts
2026-05-06 21:28 33.53393 -112.19605 11968 ft 264 kts
2026-05-06 21:29 33.55310 -112.19698 12287 ft 288 kts 358°
2026-05-06 21:29 33.56669 -112.19811 12455 ft 304 kts 357°
2026-05-06 21:29 33.58847 -112.20024 12775 ft 323 kts 356°
2026-05-06 21:29 33.61128 -112.20258 13414 ft 331 kts 356°
2026-05-06 21:30 33.63429 -112.20681 14107 ft 339 kts 347°
2026-05-06 21:30 33.65716 -112.21443 14769 ft 343 kts 346°
2026-05-06 21:30 33.68032 -112.22204 15433 ft 347 kts 346°
2026-05-06 21:30 33.70372 -112.22964 16184 ft 349 kts 346°
2026-05-06 21:31 33.72723 -112.23723 16885 ft 352 kts 347°
2026-05-06 21:31 33.75095 -112.24484 17512 ft 355 kts 347°
2026-05-06 21:31 33.77507 -112.25256 18157 ft 359 kts 347°
2026-05-06 21:31 33.79932 -112.26035 18738 ft 363 kts 347°
2026-05-06 21:32 33.82385 -112.26825 19305 ft 366 kts 347°
2026-05-06 21:32 33.87346 -112.28426 20476 ft 372 kts 347°
2026-05-06 21:32 33.89860 -112.29237 21066 ft 375 kts 348°
2026-05-06 21:33 33.92388 -112.30054 21657 ft 378 kts 348°
2026-05-06 21:33 33.94936 -112.30882 22247 ft 381 kts 348°
2026-05-06 21:33 33.97505 -112.31718 22832 ft 384 kts 348°
2026-05-06 21:33 34.00086 -112.32578 23411 ft 387 kts 345°
2026-05-06 21:34 34.02564 -112.33814 23827 ft 395 kts 336°
2026-05-06 21:34 34.04935 -112.35611 23949 ft 398 kts 326°
2026-05-06 21:34 34.07001 -112.37681 23977 ft 383 kts 324°
2026-05-06 21:34 34.09031 -112.39744 23984 ft 388 kts 324°
2026-05-06 21:35 34.11158 -112.41878 23981 ft 406 kts 324°
2026-05-06 21:35 34.13361 -112.44077 23985 ft 414 kts 324°
2026-05-06 21:35 34.15588 -112.46306 23981 ft 417 kts 324°
2026-05-06 21:35 34.17818 -112.48547 23984 ft 418 kts 324°
2026-05-06 21:36 34.20052 -112.50802 23984 ft 418 kts 324°
2026-05-06 21:36 34.22283 -112.53058 23987 ft 419 kts 324°
2026-05-06 21:36 34.24522 -112.55323 23985 ft 419 kts 324°
2026-05-06 21:36 34.26750 -112.57579 23987 ft 418 kts 324°
2026-05-06 21:37 34.28981 -112.59835 23988 ft 419 kts 324°
2026-05-06 21:37 34.31216 -112.62097 23992 ft 419 kts 324°
2026-05-06 21:37 34.33449 -112.64357 23986 ft 419 kts 323°
2026-05-06 21:37 34.35682 -112.66616 23987 ft 418 kts 323°
2026-05-06 21:38 34.37914 -112.68874 23991 ft 418 kts 323°
2026-05-06 21:38 34.40143 -112.71130 23998 ft 418 kts 323°
2026-05-06 21:38 34.42372 -112.73391 24002 ft 418 kts 323°
2026-05-06 21:38 34.44593 -112.75649 24001 ft 417 kts 323°
2026-05-06 21:39 34.46818 -112.77913 24001 ft 417 kts 323°
2026-05-06 21:39 34.49039 -112.80173 23997 ft 418 kts 323°
2026-05-06 21:39 34.51263 -112.82439 23992 ft 418 kts 323°
2026-05-06 21:39 34.53491 -112.84707 23974 ft 417 kts 323°
2026-05-06 21:40 34.55713 -112.86968 23983 ft 417 kts 323°
2026-05-06 21:40 34.57937 -112.89235 23986 ft 417 kts 323°
2026-05-06 21:40 34.60152 -112.91501 23990 ft 417 kts 323°
2026-05-06 21:40 34.62373 -112.93776 23986 ft 417 kts 323°
2026-05-06 21:41 34.64586 -112.96046 23984 ft 416 kts 323°
2026-05-06 21:41 34.66800 -112.98320 23987 ft 416 kts 323°
2026-05-06 21:41 34.69012 -113.00592 23990 ft 416 kts 323°
2026-05-06 21:41 34.71230 -113.02865 23981 ft 416 kts 323°
2026-05-06 21:42 34.73442 -113.05129 23987 ft 416 kts 323°
2026-05-06 21:42 34.75643 -113.07428 23989 ft 417 kts 320°
2026-05-06 21:42 34.77726 -113.09878 23987 ft 417 kts 319°
2026-05-06 21:42 34.79821 -113.12306 23985 ft 416 kts 321°
2026-05-06 21:43 34.81980 -113.14646 23979 ft 415 kts 322°
2026-05-06 21:43 34.84173 -113.16925 23973 ft 415 kts 323°
2026-05-06 21:43 34.86383 -113.19185 23972 ft 415 kts 323°
2026-05-06 21:43 34.88592 -113.21449 23970 ft 415 kts 323°
2026-05-06 21:44 34.90792 -113.23730 23962 ft 415 kts 322°
2026-05-06 21:44 34.92974 -113.26027 23961 ft 415 kts 322°
2026-05-06 21:44 34.95150 -113.28347 23967 ft 415 kts 322°
2026-05-06 21:44 34.97321 -113.30674 23972 ft 415 kts 322°
2026-05-06 21:45 34.99489 -113.32996 23976 ft 414 kts 322°
2026-05-06 21:45 35.01650 -113.35308 23978 ft 413 kts 322°
2026-05-06 21:45 35.03824 -113.37628 23968 ft 413 kts 322°
2026-05-06 21:45 35.05964 -113.39909 23968 ft 413 kts 322°
2026-05-06 21:46 35.08131 -113.42214 23970 ft 413 kts 322°
2026-05-06 21:46 35.10304 -113.44527 23956 ft 413 kts 322°
2026-05-06 21:46 35.12470 -113.46839 23956 ft 413 kts 322°
2026-05-06 21:46 35.14637 -113.49155 23961 ft 413 kts 322°
2026-05-06 21:47 35.16801 -113.51463 23967 ft 412 kts 322°
2026-05-06 21:47 35.18970 -113.53739 24006 ft 411 kts 323°
2026-05-06 21:47 35.21164 -113.55991 24019 ft 412 kts 323°
2026-05-06 21:47 35.23329 -113.58286 24011 ft 411 kts 322°
2026-05-06 21:48 35.25464 -113.60617 24020 ft 411 kts 321°
2026-05-06 21:48 35.27591 -113.62959 24021 ft 411 kts 321°
2026-05-06 21:48 35.29723 -113.65301 24030 ft 412 kts 321°
2026-05-06 21:48 35.31830 -113.67601 23974 ft 398 kts 322°
2026-05-06 21:49 35.33861 -113.69806 23986 ft 379 kts 322°
2026-05-06 21:49 35.35795 -113.71900 24039 ft 366 kts 322°
2026-05-06 21:49 35.37695 -113.73945 24034 ft 361 kts 322°
2026-05-06 21:49 35.39566 -113.75954 23794 ft 353 kts 323°
2026-05-06 21:50 35.41400 -113.77923 23568 ft 349 kts 323°
2026-05-06 21:50 35.43216 -113.79873 23290 ft 346 kts 322°
2026-05-06 21:50 35.45023 -113.81818 23015 ft 345 kts 322°
2026-05-06 21:50 35.46821 -113.83754 22741 ft 343 kts 322°
2026-05-06 21:51 35.48607 -113.85682 22462 ft 340 kts 322°
2026-05-06 21:51 35.50367 -113.87588 22053 ft 336 kts 322°
2026-05-06 21:51 35.52117 -113.89485 21625 ft 334 kts 322°
2026-05-06 21:51 35.53847 -113.91363 21202 ft 331 kts 322°
2026-05-06 21:52 35.55568 -113.93234 20776 ft 330 kts 322°
2026-05-06 21:52 35.57283 -113.95097 20358 ft 328 kts 322°
2026-05-06 21:52 35.58987 -113.96947 19939 ft 327 kts 322°
2026-05-06 21:52 35.60689 -113.98793 19524 ft 325 kts 322°
2026-05-06 21:53 35.62384 -114.00632 19123 ft 324 kts 322°
2026-05-06 21:53 35.64071 -114.02463 18721 ft 324 kts 322°
2026-05-06 21:53 35.65737 -114.04273 18329 ft 323 kts 322°
2026-05-06 21:53 35.67418 -114.06101 17893 ft 322 kts 322°
2026-05-06 21:54 35.69113 -114.07945 17492 ft 320 kts 322°
2026-05-06 21:54 35.70769 -114.09756 17113 ft 317 kts 322°
2026-05-06 21:54 35.72394 -114.11533 16722 ft 316 kts 322°
2026-05-06 21:54 35.74033 -114.13326 16317 ft 315 kts 322°
2026-05-06 21:55 35.75603 -114.15215 15919 ft 318 kts 314°
2026-05-06 21:55 35.76822 -114.17501 15582 ft 320 kts 303°
2026-05-06 21:55 35.77880 -114.19904 15285 ft 317 kts 303°
2026-05-06 21:55 35.78934 -114.22281 14976 ft 316 kts 303°
2026-05-06 21:56 35.79983 -114.24648 14670 ft 314 kts 303°
2026-05-06 21:56 35.81025 -114.27009 14364 ft 313 kts 303°
2026-05-06 21:56 35.82060 -114.29363 14059 ft 312 kts 303°
2026-05-06 21:56 35.83094 -114.31714 13747 ft 312 kts 304°
2026-05-06 21:57 35.84203 -114.33998 13420 ft 308 kts 312°
2026-05-06 21:57 35.85507 -114.36081 13117 ft 305 kts 313°
2026-05-06 21:57 35.86796 -114.38139 12813 ft 302 kts 313°
2026-05-06 21:57 35.88074 -114.40183 12523 ft 300 kts 312°
2026-05-06 21:58 35.89342 -114.42215 12232 ft 298 kts 312°
2026-05-06 21:58 35.90605 -114.44238 11951 ft 297 kts 312°
2026-05-06 21:58 35.91861 -114.46251 11667 ft 294 kts 311°
2026-05-06 21:58 35.93104 -114.48246 11387 ft 292 kts 311°
2026-05-06 21:59 35.94337 -114.50225 11107 ft 290 kts 311°
2026-05-06 21:59 35.95559 -114.52188 10832 ft 288 kts 311°
2026-05-06 21:59 35.96774 -114.54147 10553 ft 286 kts 311°
2026-05-06 21:59 35.97975 -114.56095 10281 ft 284 kts 311°
2026-05-06 22:00 35.99170 -114.58036 10007 ft 283 kts 311°
2026-05-06 22:00 36.00353 -114.59960 9719 ft 281 kts 310°
2026-05-06 22:00 36.01419 -114.61927 9453 ft 278 kts 302°
2026-05-06 22:00 36.02309 -114.63990 9333 ft 267 kts 302°
2026-05-06 22:01 36.03121 -114.66003 9207 ft 256 kts 301°
2026-05-06 22:01 36.03893 -114.67945 8968 ft 250 kts 300°
2026-05-06 22:01 36.04671 -114.69871 8407 ft 251 kts 300°
2026-05-06 22:01 36.05413 -114.71809 8128 ft 247 kts 294°
2026-05-06 22:02 36.05957 -114.73799 7901 ft 242 kts 291°
2026-05-06 22:02 36.06462 -114.75768 7617 ft 240 kts 290°
2026-05-06 22:02 36.06962 -114.77708 7309 ft 239 kts 290°
2026-05-06 22:02 36.07456 -114.79673 6999 ft 240 kts 284°
2026-05-06 22:03 36.07587 -114.81728 6728 ft 240 kts 272°
2026-05-06 22:03 36.07572 -114.83779 6454 ft 238 kts 270°
2026-05-06 22:03 36.07515 -114.85825 6148 ft 238 kts 269°
2026-05-06 22:03 36.07458 -114.87862 5836 ft 234 kts 270°
2026-05-06 22:04 36.07417 -114.89830 5545 ft 225 kts 270°
2026-05-06 22:04 36.07391 -114.91722 5275 ft 216 kts 271°
2026-05-06 22:04 36.07376 -114.93553 5039 ft 207 kts 270°
2026-05-06 22:04 36.07368 -114.95270 4754 ft 193 kts 271°
2026-05-06 22:05 36.07364 -114.96868 4524 ft 177 kts 272°
2026-05-06 22:05 36.07362 -114.98322 4291 ft 162 kts 272°
2026-05-06 22:05 36.07361 -114.99668 4085 ft 153 kts 272°
2026-05-06 22:05 36.07361 -115.00966 3892 ft 149 kts 272°
2026-05-06 22:06 36.07361 -115.02258 3697 ft 151 kts 271°
2026-05-06 22:06 36.07361 -115.03557 3498 ft 151 kts 271°
2026-05-06 22:06 36.07359 -115.04863 3293 ft 152 kts 271°
2026-05-06 22:06 36.07347 -115.06159 3080 ft 150 kts 270°
2026-05-06 22:07 36.07338 -115.07458 2888 ft 151 kts 271°
2026-05-06 22:07 36.07363 -115.08763 2702 ft 152 kts 270°
2026-05-06 22:07 36.07398 -115.10061 2504 ft 151 kts 270°
2026-05-06 22:07 36.07385 -115.11348 2347 ft 150 kts 266°
2026-05-06 22:08 36.07367 -115.12655 2171 ft 153 kts 269°
2026-05-06 22:08 36.07354 -115.13868 2123 ft 126 kts 271°
2026-05-06 22:08 36.07364 -115.14751 2125 ft 76 kts 269°
2026-05-06 22:08 36.07367 -115.15195 2118 ft 27 kts 280°
2026-05-06 22:09 36.07417 -115.15384 2122 ft 23 kts 300°
2026-05-06 22:09 36.07495 -115.15564 2122 ft 24 kts 297°
2026-05-06 22:09 36.07608 -115.15713 2124 ft 24 kts 319°
2026-05-06 22:09 36.07739 -115.15830 2123 ft 18 kts 355°
2026-05-06 22:10 36.07805 -115.15727 2124 ft 17 kts 92°
2026-05-06 22:10 36.07803 -115.15569 2125 ft 19 kts 90°
2026-05-06 22:10 36.07803 -115.15413 2129 ft 18 kts 90°
2026-05-06 22:10 36.07803 -115.15247 2127 ft 21 kts 90°
2026-05-06 22:11 36.07802 -115.15040 2125 ft 26 kts 91°
2026-05-06 22:11 36.07782 -115.14823 2124 ft 26 kts 94°
2026-05-06 22:11 36.07775 -115.14671 2120 ft 28 kts 94°
2026-05-06 22:11 36.07758 -115.14435 2121 ft 27 kts 94°
2026-05-06 22:12 36.07752 -115.14211 2120 ft 23 kts 83°
2026-05-06 22:12 36.07885 -115.14158 2116 ft 23 kts
2026-05-06 22:12 36.08052 -115.14145 2111 ft 26 kts
2026-05-06 22:12 36.08251 -115.14145 2100 ft 31 kts
2026-05-06 22:13 36.08407 -115.14096 2092 ft 24 kts 45°
2026-05-06 22:13 36.08479 -115.14006 2087 ft 12 kts 33°
2026-05-06 22:13 36.08533 -115.14004 2085 ft 3 kts 358°
2026-05-06 22:13 36.08534 -115.14004 2085 ft 0 kts 358°